EN

Hourly Weather Ludoni

Today, 29 November, Sunday

Time Temperature Precipitation Wind Pressure Humidity
00:00 -2°C° 0 mm 3 mps 762 mmHg 91%
01:00 -2°C° 0 mm 3 mps 762 mmHg 91%
02:00 -2°C° 0 mm 3 mps 763 mmHg 92%
03:00 -2°C° 0 mm 3 mps 763 mmHg 92%
04:00 -2°C° 0 mm 3 mps 762 mmHg 91%
05:00 -2°C° 0 mm 3 mps 762 mmHg 91%
06:00 -2°C° 0 mm 3 mps 762 mmHg 90%
07:00 -2°C° 0 mm 3 mps 762 mmHg 89%
08:00 -2°C° 0 mm 3 mps 763 mmHg 89%
09:00 -3°C° 0 mm 4 mps 762 mmHg 87%
10:00 -3°C° 0 mm 4 mps 762 mmHg 85%
11:00 -3°C° 0 mm 4 mps 762 mmHg 83%
12:00 -3°C° 0.1 mm 4 mps 761 mmHg 85%
13:00 -3°C° 0.1 mm 4 mps 761 mmHg 86%
14:00 -3°C° 0 mm 4 mps 761 mmHg 88%
15:00 -3°C° 0.2 mm 4 mps 760 mmHg 89%
16:00 -3°C° 0.2 mm 4 mps 760 mmHg 90%
17:00 -4°C° 0.2 mm 4 mps 760 mmHg 91%
18:00 -3°C° 0.2 mm 4 mps 759 mmHg 92%
19:00 -3°C° 0.2 mm 4 mps 759 mmHg 94%
20:00 -2°C° 0.2 mm 4 mps 759 mmHg 95%
21:00 -1°C° 0.3 mm 3 mps 759 mmHg 95%
22:00 0°C° 0.3 mm 3 mps 758 mmHg 96%
23:00 +1°C° 0.3 mm 3 mps 758 mmHg 97%

Tomorrow, 30 November, Monday

Time Temperature Precipitation Wind Pressure Humidity
00:00 +1°C° 0.2 mm 3 mps 758 mmHg 96%
01:00 0°C° 0.2 mm 3 mps 758 mmHg 96%
02:00 0°C° 0.2 mm 3 mps 758 mmHg 96%
03:00 +1°C° 0.1 mm 3 mps 758 mmHg 96%
04:00 +2°C° 0.1 mm 2 mps 757 mmHg 96%
05:00 +2°C° 0.1 mm 2 mps 757 mmHg 96%
06:00 +1°C° 0.1 mm 2 mps 757 mmHg 96%
07:00 +1°C° 0.1 mm 2 mps 757 mmHg 95%
08:00 -1°C° 0.1 mm 2 mps 758 mmHg 94%
09:00 -1°C° 0 mm 2 mps 757 mmHg 91%
10:00 -1°C° 0 mm 2 mps 757 mmHg 88%
11:00 -1°C° 0 mm 2 mps 757 mmHg 85%
12:00 +1°C° 0 mm 1 mps 757 mmHg 86%
13:00 +1°C° 0 mm 1 mps 757 mmHg 86%
14:00 +1°C° 0 mm 1 mps 757 mmHg 87%
15:00 0°C° 0 mm 1 mps 757 mmHg 90%
16:00 -2°C° 0 mm 2 mps 756 mmHg 92%
17:00 -3°C° 0 mm 2 mps 756 mmHg 95%
18:00 -2°C° 0 mm 2 mps 756 mmHg 93%
19:00 -2°C° 0 mm 2 mps 756 mmHg 91%
20:00 -2°C° 0 mm 2 mps 757 mmHg 90%
21:00 -2°C° 0 mm 3 mps 757 mmHg 90%
22:00 -4°C° 0 mm 3 mps 757 mmHg 89%
23:00 -4°C° 0 mm 3 mps 757 mmHg 89%

Day after tomorrow, 1 December, Tuesday

Time Temperature Precipitation Wind Pressure Humidity
00:00 -4°C° 0 mm 3 mps 757 mmHg 88%
01:00 -2°C° 0 mm 3 mps 757 mmHg 87%
02:00 -2°C° 0 mm 3 mps 757 mmHg 86%
03:00 -2°C° 0 mm 3 mps 757 mmHg 87%
04:00 -2°C° 0 mm 3 mps 757 mmHg 88%
05:00 -2°C° 0 mm 3 mps 757 mmHg 88%
06:00 -2°C° 0 mm 3 mps 758 mmHg 88%
07:00 -2°C° 0 mm 3 mps 758 mmHg 87%
08:00 -2°C° 0 mm 3 mps 759 mmHg 87%
09:00 -2°C° 0 mm 3 mps 759 mmHg 86%
10:00 -2°C° 0 mm 3 mps 759 mmHg 86%
11:00 -2°C° 0 mm 3 mps 760 mmHg 85%
12:00 -2°C° 0 mm 3 mps 760 mmHg 85%
13:00 -2°C° 0 mm 3 mps 760 mmHg 85%
14:00 -2°C° 0 mm 3 mps 761 mmHg 84%
15:00 -2°C° 0 mm 3 mps 761 mmHg 85%
16:00 -2°C° 0 mm 3 mps 761 mmHg 85%
17:00 -2°C° 0 mm 3 mps 761 mmHg 85%
18:00 -2°C° 0 mm 3 mps 762 mmHg 85%
19:00 -2°C° 0 mm 3 mps 762 mmHg 85%
20:00 -2°C° 0 mm 3 mps 763 mmHg 85%
21:00 -2°C° 0 mm 3 mps 763 mmHg 86%
22:00 -2°C° 0 mm 3 mps 763 mmHg 87%
23:00 -2°C° 0 mm 3 mps 763 mmHg 89%

2 December, Wednesday

Time Temperature Precipitation Wind Pressure Humidity
00:00 -2°C° 0 mm 3 mps 764 mmHg 88%
01:00 -2°C° 0 mm 3 mps 764 mmHg 88%
02:00 -2°C° 0 mm 3 mps 764 mmHg 88%
03:00 -2°C° 0 mm 2 mps 764 mmHg 88%
04:00 -2°C° 0 mm 2 mps 764 mmHg 88%
05:00 -3°C° 0 mm 2 mps 764 mmHg 88%
06:00 -3°C° 0 mm 2 mps 764 mmHg 88%
07:00 -2°C° 0 mm 2 mps 764 mmHg 88%
08:00 -2°C° 0 mm 2 mps 765 mmHg 87%
09:00 -2°C° 0 mm 2 mps 765 mmHg 86%
10:00 -2°C° 0 mm 2 mps 765 mmHg 85%
11:00 -2°C° 0 mm 2 mps 765 mmHg 84%
12:00 -2°C° 0 mm 2 mps 765 mmHg 83%
13:00 -2°C° 0 mm 2 mps 765 mmHg 82%
14:00 -2°C° 0 mm 2 mps 765 mmHg 81%
15:00 0°C° 0 mm 1 mps 765 mmHg 82%
16:00 -1°C° 0 mm 1 mps 765 mmHg 84%
17:00 -1°C° 0 mm 1 mps 764 mmHg 86%
18:00 -1°C° 0 mm 1 mps 764 mmHg 86%
19:00 -3°C° 0 mm 2 mps 764 mmHg 87%
20:00 -3°C° 0 mm 2 mps 764 mmHg 87%
21:00 -3°C° 0 mm 2 mps 764 mmHg 86%
22:00 -3°C° 0 mm 2 mps 764 mmHg 85%
23:00 -3°C° 0 mm 2 mps 764 mmHg 84%

3 December, Thursday

Time Temperature Precipitation Wind Pressure Humidity
00:00 -3°C° 0 mm 2 mps 764 mmHg 86%
01:00 -3°C° 0 mm 2 mps 763 mmHg 88%
02:00 -3°C° 0 mm 2 mps 763 mmHg 90%
03:00 -3°C° 0 mm 2 mps 763 mmHg 90%
04:00 -3°C° 0 mm 2 mps 762 mmHg 91%
05:00 -3°C° 0 mm 2 mps 762 mmHg 91%
06:00 -4°C° 0 mm 3 mps 762 mmHg 90%
07:00 -5°C° 0 mm 3 mps 762 mmHg 89%
08:00 -5°C° 0 mm 3 mps 761 mmHg 88%
09:00 -5°C° 0 mm 3 mps 761 mmHg 87%
10:00 -5°C° 0 mm 3 mps 761 mmHg 85%
11:00 -4°C° 0 mm 3 mps 761 mmHg 83%
12:00 -4°C° 0 mm 3 mps 761 mmHg 82%
13:00 -4°C° 0 mm 3 mps 761 mmHg 81%
14:00 -4°C° 0 mm 3 mps 761 mmHg 81%
15:00 -4°C° 0 mm 3 mps 760 mmHg 81%
16:00 -4°C° 0 mm 3 mps 760 mmHg 81%
17:00 -4°C° 0 mm 3 mps 760 mmHg 82%
18:00 -4°C° 0 mm 3 mps 760 mmHg 83%
19:00 -4°C° 0 mm 3 mps 760 mmHg 83%
20:00 -4°C° 0 mm 3 mps 760 mmHg 84%
21:00 -4°C° 0 mm 3 mps 760 mmHg 85%
22:00 -4°C° 0 mm 3 mps 760 mmHg 86%
23:00 -4°C° 0 mm 3 mps 760 mmHg 86%

4 December, Friday

Time Temperature Precipitation Wind Pressure Humidity
00:00 -4°C° 0 mm 3 mps 760 mmHg 87%
01:00 -4°C° 0 mm 3 mps 760 mmHg 87%
02:00 -4°C° 0 mm 3 mps 760 mmHg 87%
03:00 -5°C° 0 mm 3 mps 760 mmHg 89%
04:00 -5°C° 0 mm 3 mps 760 mmHg 90%
05:00 -5°C° 0 mm 3 mps 760 mmHg 91%
06:00 -5°C° 0 mm 3 mps 760 mmHg 91%
07:00 -5°C° 0 mm 3 mps 760 mmHg 91%
08:00 -5°C° 0 mm 3 mps 760 mmHg 91%
09:00 -4°C° 0 mm 3 mps 760 mmHg 90%
10:00 -4°C° 0 mm 3 mps 760 mmHg 88%
11:00 -4°C° 0 mm 3 mps 760 mmHg 86%
12:00 -4°C° 0 mm 3 mps 760 mmHg 86%
13:00 -4°C° 0 mm 3 mps 760 mmHg 86%
14:00 -2°C° 0 mm 3 mps 760 mmHg 85%
15:00 -2°C° 0 mm 3 mps 760 mmHg 86%
16:00 -2°C° 0 mm 3 mps 760 mmHg 87%
17:00 -2°C° 0 mm 3 mps 760 mmHg 88%
18:00 -2°C° 0 mm 3 mps 760 mmHg 87%
19:00 -2°C° 0 mm 3 mps 760 mmHg 87%
20:00 -2°C° 0 mm 3 mps 760 mmHg 86%
21:00 -2°C° 0 mm 3 mps 760 mmHg 87%
22:00 -2°C° 0 mm 3 mps 760 mmHg 88%
23:00 -2°C° 0 mm 3 mps 760 mmHg 89%
Show more